| time (UTC) | temp F | wind direction | speed knots | gust knots | rain 1hr in | rain 24hr in | rain mn in | humidity % | barometer mb |
| 20260506023603 | 48 | 302 | 1.7 | 5.2 | 0.00 | 0.00 | 0.00 | 88 | 1007.7 |
| 20260506022918 | 48 | 296 | 2.6 | 7.0 | 0.00 | 0.00 | 0.00 | 88 | 1007.5 |
| 20260506022020 | 48 | 305 | 1.7 | 7.0 | 0.00 | 0.00 | 0.00 | 88 | 1007.4 |
| 20260506021118 | 48 | 298 | 1.7 | 5.2 | 0.00 | 0.00 | 0.00 | 87 | 1007.6 |
| 20260506020003 | 48 | 307 | 1.7 | 7.0 | 0.00 | 0.00 | 0.00 | 87 | 1007.7 |
| 20260506015403 | 48 | 307 | 2.6 | 7.0 | 0.00 | 0.00 | 0.00 | 87 | 1007.7 |
| 20260506014504 | 48 | 296 | 2.6 | 7.0 | 0.00 | 0.01 | 0.00 | 86 | 1007.6 |
| 20260506013821 | 48 | 295 | 2.6 | 7.8 | 0.00 | 0.01 | 0.00 | 86 | 1007.8 |
| 20260506012919 | 48 | 302 | 1.7 | 6.1 | 0.00 | 0.01 | 0.00 | 85 | 1007.8 |
| 20260506011804 | 49 | 300 | 2.6 | 6.1 | 0.00 | 0.02 | 0.00 | 85 | 1007.9 |
| 20260506010903 | 49 | 302 | 1.7 | 6.1 | 0.00 | 0.02 | 0.00 | 84 | 1007.9 |
| 20260506010008 | 49 | 287 | 1.7 | 6.1 | 0.00 | 0.03 | 0.00 | 83 | 1007.9 |
| 20260506005617 | 49 | 292 | 1.7 | 6.1 | 0.00 | 0.03 | 0.00 | 83 | 1007.9 |
| 20260506004720 | 49 | 286 | 1.7 | 6.1 | 0.00 | 0.03 | 0.00 | 83 | 1008.2 |
| 20260506003817 | 49 | 301 | 2.6 | 6.1 | 0.00 | 0.03 | 0.00 | 82 | 1008.1 |
| 20260506002919 | 49 | 298 | 1.7 | 3.5 | 0.00 | 0.03 | 0.00 | 82 | 1008.0 |
| 20260506002017 | 50 | 300 | 1.7 | 6.1 | 0.00 | 0.03 | 0.00 | 81 | 1008.1 |
| 20260506001119 | 50 | 298 | 1.7 | 6.1 | 0.00 | 0.03 | 0.00 | 82 | 1008.3 |
| 20260506000221 | 50 | 308 | 1.7 | 7.8 | 0.00 | 0.04 | 0.00 | 81 | 1008.2 |
| 20260505235403 | 50 | 309 | 1.7 | 6.1 | 0.00 | 0.04 | 0.00 | 81 | 1008.3 |
| 20260505234504 | 50 | 300 | 1.7 | 7.0 | 0.00 | 0.05 | 0.00 | 81 | 1008.4 |
| 20260505233603 | 50 | 304 | 1.7 | 6.1 | 0.00 | 0.05 | 0.00 | 81 | 1008.4 |
| 20260505232920 | 50 | 306 | 1.7 | 3.5 | 0.00 | 0.06 | 0.00 | 81 | 1008.4 |
| 20260505231803 | 50 | 287 | 1.7 | 6.1 | 0.00 | 0.08 | 0.00 | 80 | 1008.8 |
| 20260505230903 | 50 | 292 | 1.7 | 6.1 | 0.00 | 0.10 | 0.00 | 80 | 1008.7 |
| 20260505230003 | 50 | 285 | 1.7 | 6.1 | 0.00 | 0.11 | 0.00 | 80 | 1008.7 |
| 20260505225403 | 50 | 296 | 2.6 | 6.1 | 0.00 | 0.12 | 0.00 | 79 | 1008.5 |
| 20260505224721 | 50 | 303 | 2.6 | 6.1 | 0.00 | 0.16 | 0.00 | 79 | 1008.6 |
| 20260505223603 | 51 | 301 | 2.6 | 7.0 | 0.00 | 0.32 | 0.00 | 79 | 1008.9 |
| 20260505222708 | 51 | 309 | 1.7 | 6.1 | 0.00 | 0.35 | 0.00 | 79 | 1009.0 |
| 20260505221803 | 51 | 309 | 1.7 | 7.0 | 0.00 | 0.35 | 0.00 | 79 | 1008.7 |
| 20260505220904 | 51 | 296 | 1.7 | 7.0 | 0.00 | 0.35 | 0.00 | 79 | 1008.9 |
| 20260505220218 | 51 | 295 | 2.6 | 7.0 | 0.00 | 0.36 | 0.00 | 79 | 1009.0 |
| 20260505215619 | 51 | 300 | 2.6 | 7.0 | 0.00 | 0.36 | 0.36 | 79 | 1008.8 |
| 20260505214716 | 51 | 301 | 2.6 | 6.1 | 0.00 | 0.36 | 0.36 | 79 | 1009.0 |
| 20260505213604 | 51 | 306 | 1.7 | 5.2 | 0.00 | 0.36 | 0.36 | 79 | 1009.3 |
| 20260505212703 | 51 | 287 | 1.7 | 6.1 | 0.00 | 0.36 | 0.36 | 79 | 1009.1 |
| 20260505212019 | 51 | 289 | 1.7 | 6.1 | 0.00 | 0.36 | 0.36 | 79 | 1009.2 |
| 20260505211121 | 51 | 291 | 1.7 | 2.6 | 0.00 | 0.36 | 0.36 | 80 | 1009.1 |
| 20260505210003 | 51 | 306 | 1.7 | 2.6 | 0.00 | 0.36 | 0.36 | 80 | 1009.0 |
| 20260505205403 | 51 | 315 | 2.6 | 5.2 | 0.00 | 0.36 | 0.36 | 79 | 1009.3 |
| 20260505204503 | 51 | 271 | 2.6 | 6.1 | 0.00 | 0.36 | 0.36 | 80 | 1009.4 |
| 20260505203603 | 51 | 301 | 2.6 | 5.2 | 0.00 | 0.36 | 0.36 | 80 | 1009.5 |
| 20260505202704 | 51 | 294 | 1.7 | 3.5 | 0.00 | 0.36 | 0.36 | 80 | 1009.4 |
| 20260505201804 | 52 | 302 | 2.6 | 5.2 | 0.00 | 0.36 | 0.36 | 79 | 1009.4 |
| 20260505201122 | 52 | 287 | 1.7 | 6.1 | 0.00 | 0.36 | 0.36 | 79 | 1009.3 |
| 20260505200219 | 52 | 268 | 1.7 | 3.5 | 0.00 | 0.36 | 0.36 | 80 | 1009.3 |
| 20260505195620 | 52 | 311 | 1.7 | 7.0 | 0.00 | 0.36 | 0.36 | 80 | 1009.4 |
| 20260505194718 | 52 | 300 | 2.6 | 7.0 | 0.00 | 0.36 | 0.36 | 79 | 1009.2 |
| 20260505193820 | 52 | 290 | 1.7 | 5.2 | 0.00 | 0.36 | 0.36 | 80 | 1009.2 |
| 20260505192918 | 52 | 289 | 1.7 | 3.5 | 0.00 | 0.36 | 0.36 | 80 | 1009.1 |
| 20260505192020 | 52 | 281 | 0.9 | 2.6 | 0.00 | 0.36 | 0.36 | 79 | 1009.1 |
| 20260505190903 | 52 | 290 | 1.7 | 7.0 | 0.00 | 0.36 | 0.36 | 80 | 1008.9 |
| 20260505190004 | 52 | 278 | 0.9 | 3.5 | 0.00 | 0.36 | 0.36 | 80 | 1008.9 |
| 20260505185403 | 52 | 310 | 1.7 | 3.5 | 0.00 | 0.36 | 0.36 | 79 | 1008.9 |
| 20260505184503 | 52 | 289 | 1.7 | 6.1 | 0.00 | 0.36 | 0.36 | 79 | 1008.9 |
| 20260505183604 | 52 | 292 | 1.7 | 7.0 | 0.00 | 0.36 | 0.36 | 79 | 1008.9 |
| 20260505182918 | 52 | 274 | 2.6 | 7.0 | 0.00 | 0.36 | 0.36 | 79 | 1008.8 |
| 20260505182020 | 53 | 272 | 1.7 | 7.8 | 0.00 | 0.36 | 0.36 | 78 | 1008.9 |
| 20260505181118 | 53 | 296 | 1.7 | 7.8 | 0.00 | 0.36 | 0.36 | 78 | 1008.7 |
| 20260505180003 | 53 | 285 | 1.7 | 5.2 | 0.00 | 0.36 | 0.36 | 77 | 1008.8 |
| 20260505175404 | 53 | 277 | 1.7 | 3.5 | 0.00 | 0.36 | 0.36 | 77 | 1008.8 |
| 20260505174503 | 53 | 295 | 0.9 | 2.6 | 0.00 | 0.36 | 0.36 | 77 | 1008.8 |
| 20260505173603 | 53 | 298 | 1.7 | 3.5 | 0.00 | 0.36 | 0.36 | 77 | 1008.9 |
| 20260505172703 | 54 | 272 | 1.7 | 3.5 | 0.00 | 0.36 | 0.36 | 76 | 1008.9 |
| 20260505171804 | 54 | 262 | 1.7 | 6.1 | 0.00 | 0.36 | 0.36 | 76 | 1008.9 |
| 20260505170903 | 54 | 273 | 0.9 | 6.1 | 0.00 | 0.36 | 0.36 | 77 | 1009.0 |
| 20260505170003 | 54 | 273 | 2.6 | 6.1 | 0.00 | 0.36 | 0.36 | 76 | 1008.9 |
| 20260505165403 | 54 | 266 | 1.7 | 5.2 | 0.00 | 0.36 | 0.36 | 75 | 1008.9 |
| 20260505164503 | 54 | 295 | 2.6 | 5.2 | 0.00 | 0.36 | 0.36 | 76 | 1009.0 |
| 20260505163817 | 54 | 281 | 1.7 | 5.2 | 0.00 | 0.36 | 0.36 | 76 | 1009.0 |
| 20260505162919 | 54 | 305 | 1.7 | 7.0 | 0.00 | 0.36 | 0.36 | 77 | 1008.8 |
| 20260505161803 | 53 | 295 | 2.6 | 6.1 | 0.00 | 0.36 | 0.36 | 76 | 1009.3 |
| 20260505160903 | 54 | 282 | 1.7 | 5.2 | 0.00 | 0.36 | 0.36 | 77 | 1009.0 |
| 20260505160221 | 54 | 301 | 1.7 | 5.2 | 0.00 | 0.36 | 0.36 | 77 | 1009.2 |
| 20260505152920 | 54 | 275 | 1.7 | 3.5 | 0.00 | 0.36 | 0.36 | 77 | 1009.5 |
| 20260505152017 | 54 | 282 | 1.7 | 3.5 | 0.00 | 0.36 | 0.36 | 77 | 1009.4 |
| 20260505151120 | 54 | 286 | 1.7 | 3.5 | 0.00 | 0.36 | 0.36 | 77 | 1009.4 |
| 20260505150217 | 54 | 286 | 0.9 | 3.5 | 0.00 | 0.36 | 0.36 | 78 | 1009.7 |
| 20260505124504 | 54 | 306 | 1.7 | 5.2 | 0.00 | 0.36 | 0.36 | 79 | 1010.2 |
| 20260505123603 | 53 | 284 | 1.7 | 6.1 | 0.00 | 0.36 | 0.36 | 80 | 1010.3 |
| 20260505122704 | 53 | 288 | 1.7 | 3.5 | 0.00 | 0.36 | 0.36 | 79 | 1010.4 |
| 20260505122019 | 53 | 305 | 1.7 | 3.5 | 0.00 | 0.36 | 0.36 | 79 | 1010.4 |
| 20260505121116 | 53 | 298 | 0.9 | 5.2 | 0.00 | 0.36 | 0.36 | 81 | 1010.4 |
| 20260505120004 | 53 | 294 | 1.7 | 3.5 | 0.00 | 0.36 | 0.36 | 82 | 1010.4 |
| 20260505115403 | 53 | 240 | 1.7 | 2.6 | 0.00 | 0.36 | 0.36 | 81 | 1010.5 |
| 20260505114503 | 53 | 246 | 0.9 | 1.7 | 0.00 | 0.36 | 0.36 | 82 | 1010.6 |
| 20260505113603 | 53 | 159 | 0.9 | 3.5 | 0.00 | 0.36 | 0.36 | 81 | 1010.5 |
| 20260505112917 | 53 | 318 | 0.9 | 3.5 | 0.00 | 0.36 | 0.36 | 81 | 1010.7 |
| 20260505112020 | 53 | 309 | 1.7 | 3.5 | 0.00 | 0.36 | 0.36 | 81 | 1010.7 |
| 20260505111117 | 52 | 303 | 1.7 | 6.1 | 0.00 | 0.36 | 0.36 | 82 | 1010.7 |
| 20260505110220 | 52 | 286 | 1.7 | 3.5 | 0.00 | 0.36 | 0.36 | 82 | 1010.6 |
| 20260505102020 | 52 | 214 | 1.7 | 3.5 | 0.00 | 0.36 | 0.36 | 84 | 1010.7 |
| 20260505101118 | 51 | 224 | 1.7 | 3.5 | 0.00 | 0.36 | 0.36 | 83 | 1010.8 |
| 20260505100220 | 51 | 102 | 1.7 | 5.2 | 0.00 | 0.36 | 0.36 | 84 | 1011.1 |
| 20260505095403 | 51 | 134 | 1.7 | 6.1 | 0.00 | 0.36 | 0.36 | 83 | 1010.9 |
| 20260505094719 | 51 | 292 | 1.7 | 6.1 | 0.00 | 0.36 | 0.36 | 84 | 1011.0 |
| 20260505093604 | 51 | 143 | 1.7 | 6.1 | 0.00 | 0.36 | 0.36 | 85 | 1011.0 |
| 20260505092703 | 50 | 255 | 1.7 | 3.5 | 0.00 | 0.36 | 0.36 | 85 | 1011.1 |
| 20260505092021 | 50 | 247 | 1.7 | 3.5 | 0.00 | 0.36 | 0.36 | 86 | 1010.9 |
| 20260505091118 | 50 | 229 | 1.7 | 3.5 | 0.00 | 0.36 | 0.36 | 86 | 1010.9 |
| 20260505090003 | 50 | 304 | 0.9 | 3.5 | 0.00 | 0.36 | 0.36 | 86 | 1011.2 |
| 20260505085403 | 50 | 139 | 1.7 | 3.5 | 0.00 | 0.36 | 0.36 | 87 | 1011.0 |
| 20260505084503 | 50 | 255 | 0.9 | 1.7 | 0.00 | 0.36 | 0.36 | 87 | 1011.0 |
| 20260505083817 | 50 | 221 | 0.9 | 1.7 | 0.00 | 0.36 | 0.36 | 87 | 1011.0 |
| 20260505082919 | 50 | 172 | 1.7 | 3.5 | 0.00 | 0.36 | 0.36 | 87 | 1011.0 |
| 20260505081803 | 50 | 256 | 1.7 | 5.2 | 0.00 | 0.36 | 0.36 | 87 | 1011.0 |
| 20260505081119 | 50 | 306 | 1.7 | 5.2 | 0.00 | 0.36 | 0.36 | 87 | 1011.1 |
| 20260505080003 | 50 | 288 | 0.9 | 6.1 | 0.00 | 0.36 | 0.36 | 87 | 1011.1 |
| 20260505075403 | 50 | 283 | 0.9 | 6.1 | 0.00 | 0.36 | 0.36 | 87 | 1010.8 |
| 20260505074503 | 50 | 233 | 0.9 | 2.6 | 0.00 | 0.36 | 0.36 | 88 | 1010.9 |
| 20260505073604 | 49 | 183 | 1.7 | 6.1 | 0.00 | 0.36 | 0.36 | 88 | 1010.9 |
| 20260505072703 | 49 | 323 | 1.7 | 5.2 | 0.00 | 0.36 | 0.36 | 88 | 1010.8 |
| 20260505071803 | 49 | 29 | 0.9 | 1.7 | 0.00 | 0.36 | 0.36 | 88 | 1010.8 |
| 20260505070903 | 49 | 259 | 1.7 | 5.2 | 0.00 | 0.36 | 0.36 | 89 | 1010.9 |
| 20260505070217 | 49 | 253 | 1.7 | 5.2 | 0.00 | 0.36 | 0.36 | 88 | 1011.1 |
| 20260505065619 | 49 | 315 | 1.7 | 3.5 | 0.00 | 0.36 | 0.36 | 88 | 1011.2 |
| 20260505064503 | 49 | 265 | 0.9 | 3.5 | 0.00 | 0.36 | 0.36 | 88 | 1011.3 |
| 20260505063603 | 49 | 197 | 0.9 | 2.6 | 0.00 | 0.36 | 0.36 | 89 | 1011.4 |
| 20260505062703 | 49 | 269 | 1.7 | 5.2 | 0.00 | 0.36 | 0.36 | 88 | 1011.3 |
| 20260505061803 | 49 | 279 | 1.7 | 3.5 | 0.00 | 0.36 | 0.36 | 88 | 1011.3 |
| 20260505060903 | 49 | 303 | 1.7 | 6.1 | 0.00 | 0.36 | 0.36 | 88 | 1011.5 |
| 20260505060003 | 49 | 282 | 1.7 | 6.1 | 0.00 | 0.36 | 0.36 | 88 | 1011.5 |
| 20260505055403 | 49 | 283 | 1.7 | 5.2 | 0.00 | 0.36 | 0.36 | 88 | 1011.3 |
| 20260505054503 | 49 | 298 | 1.7 | 5.2 | 0.00 | 0.36 | 0.36 | 88 | 1011.3 |
| 20260505053824 | 49 | 303 | 1.7 | 2.6 | 0.00 | 0.36 | 0.36 | 89 | 1011.3 |
| 20260505052921 | 49 | 326 | 1.7 | 6.1 | 0.00 | 0.36 | 0.36 | 89 | 1011.2 |
| 20260505051804 | 49 | 309 | 1.7 | 3.5 | 0.00 | 0.36 | 0.36 | 90 | 1011.0 |
| 20260505050903 | 49 | 303 | 1.7 | 5.2 | 0.00 | 0.36 | 0.36 | 90 | 1010.9 |
| 20260505040904 | 49 | 298 | 1.7 | 6.1 | 0.00 | 0.37 | 0.36 | 91 | 1011.1 |
| 20260505040004 | 50 | 316 | 1.7 | 7.0 | 0.00 | 0.37 | 0.36 | 91 | 1011.1 |
| 20260505035403 | 50 | 315 | 1.7 | 3.5 | 0.00 | 0.37 | 0.36 | 91 | 1010.8 |
| 20260505034718 | 50 | 299 | 0.9 | 3.5 | 0.00 | 0.37 | 0.36 | 91 | 1010.7 |
| 20260505033820 | 50 | 256 | 0.9 | 3.5 | 0.00 | 0.37 | 0.36 | 91 | 1010.6 |
| 20260505032917 | 50 | 201 | 0.9 | 3.5 | 0.00 | 0.37 | 0.36 | 90 | 1010.7 |
| 20260505032020 | 50 | 170 | 0.9 | 3.5 | 0.00 | 0.37 | 0.36 | 91 | 1010.9 |
| 20260505031117 | 51 | 264 | 0.9 | 3.5 | 0.00 | 0.37 | 0.36 | 91 | 1011.1 |
| 20260505030008 | 51 | 307 | 0.9 | 5.2 | 0.00 | 0.37 | 0.36 | 92 | 1010.9 |
| 20260505025403 | 51 | 308 | 0.9 | 5.2 | 0.00 | 0.37 | 0.36 | 92 | 1011.2 |
| 20260505024718 | 51 | 303 | 1.7 | 5.2 | 0.01 | 0.37 | 0.36 | 92 | 1011.2 |